Weather History for China Lake, CA

Change the Weather History Date:

Monday, December 15, 2014

  Actual Average Record
Temperature  
Mean Temperature 42 °F -  
Max Temperature 51 °F 55 °F 73 °F (1998)
Min Temperature 32 °F 31 °F 19 °F (2003)
Degree Days  
Heating Degree Days 24    
Moisture  
Dew Point 35 °F    
Average Humidity 80    
Maximum Humidity 96    
Minimum Humidity 50    
Precipitation  
Precipitation 0.07 in - - ()
Sea Level Pressure  
Sea Level Pressure 30.09 in    
Wind  
Wind Speed 3 mph (SW)    
Max Wind Speed 6 mph    
Max Gust Speed -    
Visibility 10 miles    
Events Rain    
Averages and records for this station are not official NWS values.
T = Trace of Precipitation, MM = Missing Value Source: NWS Daily Summary

Daily Weather History Graph

Daily Weather History Graph

Search for Another Location

Airport:

Trip Planner

Search our weather history database for the weather conditions in past years. The results will help you decide how hot, cold, wet, or windy it might be!

Date:

Astronomy

Dec. 15, 2014 Rise Set
Actual Time 6:53 AM PST 4:38 PM PST
Civil Twilight 6:24 AM PST 5:07 PM PST
Nautical Twilight 5:52 AM PST 5:39 PM PST
Astronomical Twilight 5:21 AM PST 6:10 PM PST
Moon 12:27 AM PST (12/15) 12:30 PM PST (12/15)
Length of Visible Light 10h 42m
Length of Day
9h 45m
Last Quarter, 38% of the Moon is Illuminated
Dec 15
Last Quarter
Dec 21
New
Dec 28
First Quarter
Jan 4
Full
Jan 13
Last Quarter

Hourly Weather History & Observations

Time (PST) Temp. Windchill Dew Point Humidity Pressure Visibility Wind Dir Wind Speed Gust Speed Precip Events Conditions
12:56 AM 36.0 °F - 33.1 °F 89% 30.14 in 10.0 mi Calm Calm - N/A   Clear
1:56 AM 35.1 °F 32.2 °F 32.0 °F 89% 30.14 in 10.0 mi SSW 3.5 mph - N/A   Clear
2:56 AM 34.0 °F 28.8 °F 32.0 °F 92% 30.13 in 10.0 mi SSW 5.8 mph - N/A   Clear
3:56 AM 34.0 °F 29.8 °F 32.0 °F 92% 30.12 in 10.0 mi South 4.6 mph - N/A   Clear
4:56 AM 33.1 °F - 30.9 °F 92% 30.11 in 10.0 mi Calm Calm - N/A   Overcast
5:56 AM 34.0 °F - 32.0 °F 92% 30.12 in 10.0 mi Calm Calm - N/A   Overcast
6:56 AM 32.0 °F 28.7 °F 30.0 °F 92% 30.14 in 10.0 mi West 3.5 mph - N/A   Mostly Cloudy
7:56 AM 34.0 °F 29.8 °F 33.1 °F 96% 30.15 in 10.0 mi South 4.6 mph - N/A   Mostly Cloudy
8:56 AM 39.9 °F 36.7 °F 36.0 °F 86% 30.16 in 10.0 mi WSW 4.6 mph - N/A   Mostly Cloudy
9:56 AM 43.0 °F - 37.0 °F 80% 30.17 in 10.0 mi Calm Calm - N/A   Overcast
10:56 AM 43.0 °F 41.3 °F 37.0 °F 80% 30.15 in 10.0 mi ENE 3.5 mph - N/A   Overcast
11:56 AM 46.0 °F - 37.9 °F 73% 30.11 in 10.0 mi Calm Calm - N/A   Mostly Cloudy
12:56 PM 48.9 °F - 37.0 °F 64% 30.07 in 10.0 mi Calm Calm - N/A   Overcast
1:56 PM 51.1 °F - 33.1 °F 50% 30.05 in 10.0 mi Calm Calm - N/A   Mostly Cloudy
2:56 PM 51.1 °F - 37.0 °F 59% 30.02 in 10.0 mi NE 5.8 mph - N/A   Overcast
3:56 PM 50.0 °F - 35.1 °F 57% 30.03 in 10.0 mi West 3.5 mph - N/A   Mostly Cloudy
4:56 PM 48.0 °F - 37.0 °F 66% 30.03 in 10.0 mi Calm Calm - N/A   Mostly Cloudy
5:56 PM 45.0 °F 43.5 °F 37.0 °F 74% 30.03 in 10.0 mi ENE 3.5 mph - N/A   Mostly Cloudy
6:56 PM 45.0 °F 43.5 °F 39.0 °F 80% 30.04 in 10.0 mi SE 3.5 mph - N/A   Mostly Cloudy
7:56 PM 43.0 °F 39.5 °F 37.9 °F 82% 30.03 in 10.0 mi SW 5.8 mph - N/A   Scattered Clouds
8:56 PM 42.1 °F 39.2 °F 37.0 °F 82% 30.03 in 10.0 mi SW 4.6 mph - N/A   Overcast
9:56 PM 43.0 °F 41.3 °F 37.0 °F 80% 30.04 in 10.0 mi South 3.5 mph - N/A   Overcast
10:56 PM 43.0 °F 41.3 °F 37.9 °F 82% 30.05 in 10.0 mi NW 3.5 mph - N/A   Overcast
11:39 PM 43.0 °F 40.3 °F 39.0 °F 86% 30.05 in 3.0 mi West 4.6 mph - 0.03 in Rain Rain
11:56 PM 44.1 °F 40.8 °F 39.0 °F 82% 30.07 in 4.0 mi West 5.8 mph - 0.07 in Rain Rain